Location: ???????
(55.5931°N, 39.3286°E)
Time: 11:51:39
(UTC+00:00)

Cosmos 1633 Rocket - Pass Details

Date: 14 April 2024
Orbit: 605 x 619 km, 82.5° (Epoch: 27 May)

Event Time Altitude Azimuth Distance (km) Brightness Sun altitude
Rises 00:30:08 0° 350° (N) 2,877 7.0 -14.2°
Reaches altitude 10° 00:32:24 10° 355° (N) 1,969 6.2 -13.9°
Maximum altitude 00:36:41 53° 73° (ENE) 755 3.9 -13.5°
Drops below altitude 10° 00:40:55 10° 151° (SSE) 1,959 5.5 -13.0°
Sets 00:43:10 0° 156° (SSE) 2,861 6.3 -12.8°
